Regional Weather Roundup
Issued by NWS Kansas City/Pleasant Hill, MO

Home | Current Version | Previous Version | Graphics & Text | Print | Product List | Glossary Off
Versions: 1 2 3 4 5 6 7 8 9 10 11 12 13 14 15 16 17 18 19 20 21 22 23 24 25 26 27

000
ASUS43 KEAX 110810
RWREAX

WEATHER ROUNDUP FOR EASTERN KANSAS AND NORTHWEST MISSOURI
NATIONAL WEATHER SERVICE KANSAS CITY/PLEASANT HILL MO
200 AM CST MON DEC 11 2017

KSZ040-057-103>105-MOZ028-029-037-043-110900-
...KANSAS CITY METROPOLITAN AREA...

CITY           SKY/WX    TMP DP  RH WIND       PRES   REMARKS
K.C. INTL      CLEAR     35  22  58 S10       30.04F WCI  27
K.C. DOWNTOWN  CLEAR     32  24  72 CALM      30.06F
LEES SUMMIT    CLEAR     38  22  52 SW13      30.07F WCI  30
OLATHE - IXD   CLEAR     32  22  66 S7        30.09F WCI  26
OLATHE - OJC   CLEAR     33  22  63 SW7       30.08F WCI  27
LAWRENCE       CLEAR     23  20  88 NE3       30.07F

$$

MOZ001>008-011>017-020>025-030>033-038>040-044>046-053-054-110900-
...NORTHERN AND CENTRAL MISSOURI...

CITY           SKY/WX    TMP DP  RH WIND       PRES   REMARKS
ST. JOSEPH     PTCLDY    27  24  89 S6        30.03F WCI  20
MOSBY          SUNNY     27  21  80 CALM      30.05F
WARRENSBURG    CLEAR     30  23  74 S7        30.08F WCI  23
WHITEMAN AFB   CLEAR     33  23  65 SW8       30.04F WCI  27
CLINTON        CLEAR     34  23  64 SW7       30.12S WCI  28
SEDALIA        CLEAR     39  26  59 SW12      30.09F WCI  32
WARSAW         NOT AVBL
CHILLICOTHE      N/A     29  23  78 S5        30.04F WCI  24
KIRKSVILLE     CLOUDY    33  26  75 SW6       30.03F WCI  28

$$

MOZ041-047>049-056>058-063>065-088>090-097-110900-
...EASTERN AND SOUTHERN MISSOURI...

CITY           SKY/WX    TMP DP  RH WIND       PRES   REMARKS
ST. LOUIS INTL CLEAR     31  25  78 CALM      30.10F
SPIRIT OF STL  CLEAR     26  23  88 CALM      30.09F
COLUMBIA       CLEAR     34  24  67 SW9       30.09F WCI  27
JEFFERSON CITY CLEAR     30  24  78 CALM      30.11F
ROLLA          CLEAR     34  26  72 SW13      30.11F WCI  25
OSAGE BEACH    CLEAR     27  23  85 CALM      30.12F
SPRINGFIELD    CLEAR     35  23  61 SW5       30.14S WCI  31
BRANSON        CLEAR     45  21  39 CALM      30.17F
JOPLIN         CLEAR     36  24  62 SW9       30.16F WCI  29
WEST PLAINS    CLEAR     37  23  56 W3        30.16R

$$

IAZ060-094-KSZ022-034>040-054-083-096-NEZ052-066-093-110900-
...KANSAS...SOUTHEAST NEBRASKA AND IOWA...

CITY           SKY/WX    TMP DP  RH WIND       PRES   REMARKS
TOPEKA         CLEAR     25  22  88 CALM      30.07F
MANHATTAN      CLEAR     39  17  41 SW12      30.09F WCI  32
EMPORIA        CLEAR     45  17  32 W8        30.11F
CHANUTE        CLEAR     39  20  46 SW5       30.14F
WICHITA        CLEAR     37  16  42 W7        30.16F WCI  32
OMAHA          CLOUDY    33  23  66 SE7       29.97F WCI  27
LINCOLN        PTCLDY    38  17  42 W5        30.02F WCI  34
FALLS CITY     CLEAR     28  18  66 CALM      30.01F
LAMONI         CLOUDY    33  24  69 SW8       29.99F WCI  26
DES MOINES     MOCLDY    34  24  67 CALM      29.97F

$$





USA.gov is the U.S. government's official web portal to all federal, state and local government web resources and services.